TimeCST,TemperatureF,Dew PointF,Humidity,Sea Level PressureIn,VisibilityMPH,Wind Direction,Wind SpeedMPH,Gust SpeedMPH,PrecipitationIn,Events,Conditions,WindDirDegrees,DateUTC
12:51 AM,37.9,30.0,73,30.24,10.0,NNE,4.6,-,N/A,,Clear,20,2013-01-22 06:51:00
1:51 AM,37.0,28.9,73,30.24,10.0,Calm,Calm,-,N/A,,Partly Cloudy,0,2013-01-22 07:51:00
2:51 AM,39.0,30.0,70,30.25,10.0,NE,3.5,-,N/A,,Overcast,50,2013-01-22 08:51:00
3:51 AM,39.0,30.0,70,30.26,10.0,ENE,3.5,-,N/A,,Mostly Cloudy,70,2013-01-22 09:51:00
4:51 AM,36.0,28.0,73,30.24,10.0,South,5.8,-,N/A,,Partly Cloudy,170,2013-01-22 10:51:00
5:51 AM,36.0,28.0,73,30.25,10.0,Calm,Calm,-,N/A,,Clear,0,2013-01-22 11:51:00
6:51 AM,35.1,28.9,78,30.27,10.0,NNE,4.6,-,N/A,,Partly Cloudy,30,2013-01-22 12:51:00
7:51 AM,33.1,28.0,82,30.29,10.0,Calm,Calm,-,N/A,,Clear,0,2013-01-22 13:51:00
8:51 AM,39.0,28.0,65,30.29,10.0,Calm,Calm,-,N/A,,Scattered Clouds,0,2013-01-22 14:51:00
9:51 AM,43.0,30.0,60,30.30,10.0,Calm,Calm,-,N/A,,Overcast,0,2013-01-22 15:51:00
10:51 AM,48.9,33.1,54,30.29,10.0,Calm,Calm,-,N/A,,Clear,0,2013-01-22 16:51:00
11:51 AM,55.9,35.1,45,30.27,10.0,NNW,4.6,-,N/A,,Clear,330,2013-01-22 17:51:00
12:51 PM,63.0,37.9,40,30.21,10.0,Calm,Calm,-,N/A,,Clear,0,2013-01-22 18:51:00
1:51 PM,69.1,48.9,49,30.17,10.0,SW,17.3,-,N/A,,Mostly Cloudy,220,2013-01-22 19:51:00
2:51 PM,68.0,50.0,52,30.16,10.0,SSW,19.6,26.5,N/A,,Partly Cloudy,200,2013-01-22 20:51:00
3:51 PM,66.9,51.1,57,30.16,10.0,SSW,12.7,-,N/A,,Clear,200,2013-01-22 21:51:00
4:51 PM,66.9,51.1,57,30.16,10.0,SSW,15.0,-,N/A,,Clear,200,2013-01-22 22:51:00
5:51 PM,63.0,51.1,65,30.17,9.0,South,13.8,-,N/A,,Clear,190,2013-01-22 23:51:00
6:51 PM,59.0,50.0,72,30.18,10.0,SSW,3.5,-,N/A,,Clear,200,2013-01-23 00:51:00
7:51 PM,55.0,48.9,80,30.19,10.0,South,5.8,-,N/A,,Clear,190,2013-01-23 01:51:00
8:51 PM,53.1,48.9,86,30.19,10.0,SSW,6.9,-,N/A,,Clear,200,2013-01-23 02:51:00
9:51 PM,55.0,50.0,83,30.18,10.0,SSW,12.7,-,N/A,,Clear,200,2013-01-23 03:51:00
10:51 PM,55.0,51.1,86,30.18,10.0,SW,9.2,-,N/A,,Clear,220,2013-01-23 04:51:00
11:51 PM,55.9,51.1,84,30.19,10.0,SSW,9.2,-,N/A,,Clear,200,2013-01-23 05:51:00